map of MEK home
Great Circle Mapper logo
MEK - Airport
Location
City:  Meknes/Bassatine, Morocco
Near (Alt.):Second Royal Air Force Base
ICAO / IATA:GMFM / MEK

Details
Type:Airport (Aerodrome, Airfield)
Use:Military
Latitude:3352'45"N (33.879067)
Longitude:530'54"W (-5.515124)
Datum:WGS 1984
Elevation:1890 ft (576 m)
Variation:1.44W (WMM2015 magnetic declination)
0.11 annual change
Runways:2
Longest:9252 × 164 ft (2820 × 50 m), paved

Time
Time Zone:UTC+0 (DST+1)
Local Time:

Weather
METAR:GMFM 301500Z 32009KT 8000 SCT026 FEW033CB 34/17 Q1015 NOSIG
TAF:GMFM 301100Z 3012/3118 30008KT CAVOK PROB30
TEMPO 3014/3022 SCT02 3 BKN100
BECMG 3022/3102 VRB03KT CAVOK
BECMG 3110/3114 34008KT SCT023 SCT100

Related Locations
Nearby:
Farthest:KKE: 12330 mi / 19844 km
Kerikeri/Bay of Islands, NZ

Find:

   beyond  
but within

Other Information
Maps:
NOTAMs:
Links:
Sources:

  
flag of Morocco   

Sectional Chart

Flight Planning
at skyvector.com

Satellite Image

Google Maps Satellite view

 

Copyright © 2004-2015 Karl L. Swartz. All rights reserved.
The Great Circle Mapper name and logo are trademarks of the Great Circle Mapper.
All other trademarks mentioned herein belong to their respective owners.
Please see credits for attibutions and further copyright information.

  Follow gcmap on Facebook Follow gcmap on Twitter Follow gcmap on Google+

hCard Microformat

Geo Microformat